sat.trackr.live / text

‹ back to catalog

STARLINK-36394

NORAD 67566 · 2026-016F

PAYLOAD ACTIVE UNKNOWN

§ Identity

Operator
Country
US
Launch date
2026-01-25
Launch site
AFWTR
Launch vehicle
Mass (kg)
RCS (m²)

Purposes: comms

External: N2YO · Heavens-Above · Gunter

§ Orbital elements

Epoch: 2026-05-25T02:31:56.148672Z

Period
93.90 min
Inclination
97.2846°
Eccentricity
0.0000323
Mean motion
15.33471280 rev/d
Perigee alt
465.2 km
Apogee alt
465.7 km
Semi-major
6,843.6 km
B*
5.6882e-4
RAAN
205.4146°
Arg perigee
162.2198°
Mean anomaly
197.9056°
Rev number
1,857

§ Raw data

STARLINK-363941 67566U 26016F   26145.10551098  .00018348  00000+0  56882-3 0  99972 67566  97.2846 205.4146 0000323 162.2198 197.9056 15.33471280 18579

JSON: /api/v1/satellites/67566 · /tle

For live sub-satellite position, see the globe view (requires WebGL).

§ Visibility from observer

Set your observer location to see the next 7 days of passes ≥ 10°. The values pass through the URL so the page stays shareable.

No JS? Fill the form by hand. The geolocation button needs JavaScript.